Location: Jefferson
(30.9666°N, 81.7901°W)
Time: 22:46:25
(UTC+00:00)

Hubble Space Telescope - Pass Details

Date: 24 September 2024
Orbit: 504 x 508 km, 28.5° (Epoch: 06 October)

Event Time Altitude Azimuth Distance (km) Brightness Sun altitude
Exits shadow 10:19:17 - 206° (SSW) 2,046 3.4 -13.2°
Reaches altitude 10° 10:20:36 10° 193° (SSW) 1,693 3.1 -12.9°
Maximum altitude 10:22:55 15° 156° (SSE) 1,400 3.1 -12.4°
Drops below altitude 10° 10:25:14 10° 120° (ESE) 1,696 4.2 -11.9°
Sets 10:28:11 0° 96° (E) 2,582 6.1 -11.3°
